Time,TemperatureF,DewpointF,PressureIn,WindDirection,WindDirectionDegrees,WindSpeedMPH,WindSpeedGustMPH,Humidity,HourlyPrecipIn,Conditions,Clouds,dailyrainin,SoftwareType,DateUTC
2013-01-16 00:14:00,32.3,22.0,30.26,NE,56,5.0,7.0,67,0.00,,,0.00,weatherlink.com 1.10,2013-01-16 05:14:00,
2013-01-16 00:29:00,32.4,23.0,30.27,ENE,73,0.0,4.0,69,0.00,,,0.00,weatherlink.com 1.10,2013-01-16 05:29:00,
2013-01-16 00:44:00,32.4,23.0,30.27,NE,50,0.0,3.0,69,0.00,,,0.00,weatherlink.com 1.10,2013-01-16 05:44:00,
2013-01-16 01:00:00,32.4,23.0,30.27,ENE,58,0.0,1.0,69,0.00,,,0.00,weatherlink.com 1.10,2013-01-16 06:00:00,
2013-01-16 01:15:00,32.3,23.0,30.26,North,5,2.0,2.0,69,0.00,,,0.00,weatherlink.com 1.10,2013-01-16 06:15:00,
2013-01-16 01:30:00,32.3,24.0,30.26,NNW,345,2.0,3.0,70,0.00,,,0.00,weatherlink.com 1.10,2013-01-16 06:30:00,
2013-01-16 01:45:00,32.4,24.0,30.26,NNW,346,2.0,3.0,70,0.00,,,0.00,weatherlink.com 1.10,2013-01-16 06:45:00,
2013-01-16 02:00:00,32.3,24.0,30.25,NNW,347,3.0,3.0,72,0.00,,,0.00,weatherlink.com 1.10,2013-01-16 07:00:00,
2013-01-16 02:15:00,32.3,24.0,30.25,NNW,345,5.0,6.0,70,0.00,,,0.00,weatherlink.com 1.10,2013-01-16 07:15:00,
2013-01-16 02:30:00,32.3,24.0,30.25,NNW,345,7.0,7.0,71,0.00,,,0.00,weatherlink.com 1.10,2013-01-16 07:30:00,
2013-01-16 02:45:00,32.1,24.0,30.24,NW,318,7.0,8.0,72,0.00,,,0.00,weatherlink.com 1.10,2013-01-16 07:45:00,
2013-01-16 03:00:00,31.0,25.0,30.24,NNW,342,6.0,9.0,79,0.00,,,0.00,weatherlink.com 1.10,2013-01-16 08:00:00,
2013-01-16 03:15:00,29.7,26.0,30.23,NNW,328,3.0,6.0,87,0.00,,,0.00,weatherlink.com 1.10,2013-01-16 08:15:00,
2013-01-16 03:30:00,29.0,27.0,30.22,NNW,346,4.0,4.0,91,0.00,,,0.00,weatherlink.com 1.10,2013-01-16 08:30:00,
2013-01-16 03:45:00,28.7,27.0,30.20,NNW,342,4.0,5.0,92,0.00,,,0.00,weatherlink.com 1.10,2013-01-16 08:45:00,
2013-01-16 04:00:00,28.6,27.0,30.19,North,355,4.0,5.0,93,0.00,,,0.00,weatherlink.com 1.10,2013-01-16 09:00:00,
2013-01-16 04:15:00,28.5,27.0,30.18,NNW,342,6.0,7.0,94,0.00,,,0.00,weatherlink.com 1.10,2013-01-16 09:15:00,
2013-01-16 04:30:00,28.3,27.0,30.17,NNW,339,4.0,6.0,94,0.00,,,0.00,weatherlink.com 1.10,2013-01-16 09:30:00,
2013-01-16 04:45:00,28.3,27.0,30.16,NW,312,1.0,5.0,95,0.00,,,0.00,weatherlink.com 1.10,2013-01-16 09:45:00,
2013-01-16 05:00:00,28.4,27.0,30.16,NNW,329,2.0,5.0,95,0.00,,,0.00,weatherlink.com 1.10,2013-01-16 10:00:00,
2013-01-16 05:15:00,28.3,27.0,30.16,NNW,342,2.0,5.0,95,0.00,,,0.00,weatherlink.com 1.10,2013-01-16 10:15:00,
2013-01-16 05:30:00,28.3,27.0,30.15,NNW,335,5.0,7.0,95,0.00,,,0.00,weatherlink.com 1.10,2013-01-16 10:30:00,
2013-01-16 05:45:00,28.3,27.0,30.16,NW,312,1.0,5.0,95,0.00,,,0.00,weatherlink.com 1.10,2013-01-16 10:45:00,
2013-01-16 06:00:00,28.3,27.0,30.15,NNW,345,3.0,3.0,95,0.00,,,0.00,weatherlink.com 1.10,2013-01-16 11:00:00,
2013-01-16 06:15:00,28.3,27.0,30.15,NNW,342,3.0,4.0,95,0.00,,,0.00,weatherlink.com 1.10,2013-01-16 11:15:00,
2013-01-16 06:30:00,28.3,27.0,30.15,North,359,0.0,2.0,95,0.00,,,0.00,weatherlink.com 1.10,2013-01-16 11:30:00,
2013-01-16 06:45:00,28.3,27.0,30.14,NW,326,0.0,0.0,95,0.00,,,0.00,weatherlink.com 1.10,2013-01-16 11:45:00,
2013-01-16 07:00:00,28.4,27.0,30.14,NW,314,0.0,0.0,96,0.00,,,0.00,weatherlink.com 1.10,2013-01-16 12:00:00,
2013-01-16 07:15:00,28.5,28.0,30.13,NW,315,0.0,0.0,96,0.00,,,0.00,weatherlink.com 1.10,2013-01-16 12:15:00,
2013-01-16 07:30:00,28.6,28.0,30.12,SW,229,0.0,0.0,96,0.00,,,0.00,weatherlink.com 1.10,2013-01-16 12:30:00,
2013-01-16 07:45:00,28.7,28.0,30.11,West,267,0.0,1.0,96,0.00,,,0.00,weatherlink.com 1.10,2013-01-16 12:45:00,
2013-01-16 08:00:00,28.8,28.0,30.11,West,273,0.0,1.0,96,0.00,,,0.00,weatherlink.com 1.10,2013-01-16 13:00:00,
2013-01-16 08:15:00,29.0,28.0,30.11,SSE,162,0.0,0.0,96,0.00,,,0.00,weatherlink.com 1.10,2013-01-16 13:15:00,
2013-01-16 08:30:00,29.3,28.0,30.10,ESE,105,0.0,0.0,96,0.00,,,0.00,weatherlink.com 1.10,2013-01-16 13:30:00,
2013-01-16 08:46:00,29.5,29.0,30.08,WNW,300,0.0,1.0,96,0.00,,,0.00,weatherlink.com 1.10,2013-01-16 13:46:00,
2013-01-16 09:16:00,29.7,29.0,30.05,ENE,69,0.0,0.0,96,0.00,,,0.00,weatherlink.com 1.10,2013-01-16 14:16:00,
2013-01-16 09:31:00,30.0,29.0,30.06,NNW,329,0.0,2.0,96,0.00,,,0.00,weatherlink.com 1.10,2013-01-16 14:31:00,
2013-01-16 09:46:00,30.0,29.0,30.05,ENE,65,0.0,0.0,96,0.00,,,0.00,weatherlink.com 1.10,2013-01-16 14:46:00,
2013-01-16 10:01:00,30.3,29.0,30.05,North,1,0.0,1.0,96,0.00,,,0.00,weatherlink.com 1.10,2013-01-16 15:01:00,
2013-01-16 10:16:00,30.3,29.0,30.04,NNE,18,2.0,2.0,96,0.00,,,0.00,weatherlink.com 1.10,2013-01-16 15:16:00,
2013-01-16 10:31:00,30.4,29.0,30.03,NE,34,2.0,2.0,96,0.00,,,0.00,weatherlink.com 1.10,2013-01-16 15:31:00,
2013-01-16 10:46:00,30.5,30.0,30.04,NNE,13,0.0,1.0,96,0.00,,,0.00,weatherlink.com 1.10,2013-01-16 15:46:00,
2013-01-16 11:01:00,30.7,30.0,30.01,ESE,119,0.0,0.0,96,0.00,,,0.00,weatherlink.com 1.10,2013-01-16 16:01:00,
2013-01-16 11:16:00,31.0,30.0,30.02,WNW,298,2.0,2.0,96,0.00,,,0.00,weatherlink.com 1.10,2013-01-16 16:16:00,
2013-01-16 11:31:00,31.1,30.0,30.01,SSW,211,0.0,0.0,96,0.00,,,0.00,weatherlink.com 1.10,2013-01-16 16:31:00,
2013-01-16 11:46:00,31.1,30.0,29.98,South,182,0.0,0.0,96,0.00,,,0.00,weatherlink.com 1.10,2013-01-16 16:46:00,
2013-01-16 12:01:00,31.1,30.0,29.98,NNW,342,5.0,5.0,96,0.00,,,0.00,weatherlink.com 1.10,2013-01-16 17:01:00,
2013-01-16 12:16:00,30.9,30.0,30.01,North,349,5.0,6.0,96,0.00,,,0.00,weatherlink.com 1.10,2013-01-16 17:16:00,
2013-01-16 12:31:00,30.6,30.0,29.95,ENE,60,1.0,4.0,96,0.00,,,0.00,weatherlink.com 1.10,2013-01-16 17:31:00,
2013-01-16 12:46:00,30.7,30.0,29.92,NE,44,0.0,1.0,96,0.00,,,0.00,weatherlink.com 1.10,2013-01-16 17:46:00,
2013-01-16 13:01:00,30.8,30.0,29.88,ENE,75,2.0,5.0,96,0.00,,,0.00,weatherlink.com 1.10,2013-01-16 18:01:00,
2013-01-16 13:16:00,30.9,30.0,29.90,NNE,15,1.0,4.0,96,0.00,,,0.00,weatherlink.com 1.10,2013-01-16 18:16:00,
2013-01-16 13:31:00,30.9,30.0,29.93,NW,321,3.0,4.0,96,0.00,,,0.00,weatherlink.com 1.10,2013-01-16 18:31:00,
2013-01-16 13:46:00,31.0,30.0,29.91,NNW,347,1.0,2.0,96,0.00,,,0.00,weatherlink.com 1.10,2013-01-16 18:46:00,
2013-01-16 14:01:00,31.0,30.0,29.92,NNE,22,0.0,1.0,96,0.00,,,0.00,weatherlink.com 1.10,2013-01-16 19:01:00,
2013-01-16 14:16:00,31.2,30.0,29.93,NNW,329,0.0,0.0,96,0.00,,,0.00,weatherlink.com 1.10,2013-01-16 19:16:00,
2013-01-16 14:31:00,31.2,30.0,29.91,NNW,344,0.0,0.0,96,0.00,,,0.00,weatherlink.com 1.10,2013-01-16 19:31:00,
2013-01-16 14:46:00,31.1,30.0,29.91,NNE,30,0.0,0.0,96,0.00,,,0.00,weatherlink.com 1.10,2013-01-16 19:46:00,
2013-01-16 15:01:00,31.4,31.0,29.91,SW,228,0.0,1.0,97,0.00,,,0.00,weatherlink.com 1.10,2013-01-16 20:01:00,
2013-01-16 15:16:00,31.4,31.0,29.89,South,172,4.0,4.0,97,0.00,,,0.00,weatherlink.com 1.10,2013-01-16 20:16:00,
2013-01-16 15:31:00,31.7,31.0,29.90,SSW,197,2.0,6.0,97,0.00,,,0.00,weatherlink.com 1.10,2013-01-16 20:31:00,
2013-01-16 15:46:00,31.8,31.0,29.88,South,179,6.0,9.0,97,0.00,,,0.00,weatherlink.com 1.10,2013-01-16 20:46:00,
2013-01-16 16:01:00,31.9,31.0,29.87,ESE,110,4.0,11.0,97,0.00,,,0.00,weatherlink.com 1.10,2013-01-16 21:01:00,
2013-01-16 16:16:00,32.0,31.0,29.88,NNW,335,1.0,10.0,96,0.00,,,0.00,weatherlink.com 1.10,2013-01-16 21:16:00,
2013-01-16 16:31:00,32.1,31.0,29.89,SSW,204,6.0,10.0,96,0.00,,,0.00,weatherlink.com 1.10,2013-01-16 21:31:00,
2013-01-16 16:46:00,32.2,31.0,29.89,ESE,110,5.0,12.0,96,0.00,,,0.00,weatherlink.com 1.10,2013-01-16 21:46:00,
2013-01-16 17:01:00,32.3,31.0,29.89,WSW,256,5.0,16.0,95,0.00,,,0.00,weatherlink.com 1.10,2013-01-16 22:01:00,
2013-01-16 17:16:00,32.3,31.0,29.89,SW,217,10.0,17.0,95,0.00,,,0.00,weatherlink.com 1.10,2013-01-16 22:16:00,
2013-01-16 17:31:00,32.3,31.0,29.88,SSW,195,6.0,14.0,95,0.00,,,0.00,weatherlink.com 1.10,2013-01-16 22:31:00,
2013-01-16 17:46:00,32.2,31.0,29.88,WSW,242,7.0,14.0,95,0.00,,,0.00,weatherlink.com 1.10,2013-01-16 22:46:00,
2013-01-16 18:01:00,32.4,31.0,29.89,South,178,10.0,14.0,95,0.00,,,0.00,weatherlink.com 1.10,2013-01-16 23:01:00,
2013-01-16 18:16:00,32.5,31.0,29.88,NNW,340,6.0,16.0,95,0.00,,,0.00,weatherlink.com 1.10,2013-01-16 23:16:00,
2013-01-16 18:31:00,32.4,31.0,29.88,South,174,8.0,13.0,95,0.00,,,0.00,weatherlink.com 1.10,2013-01-16 23:31:00,
2013-01-16 18:46:00,32.4,31.0,29.88,South,181,12.0,14.0,95,0.00,,,0.00,weatherlink.com 1.10,2013-01-16 23:46:00,
2013-01-16 19:02:00,32.5,31.0,29.88,SSW,194,4.0,14.0,94,0.00,,,0.00,weatherlink.com 1.10,2013-01-17 00:02:00,
2013-01-16 19:17:00,32.5,31.0,29.90,SSW,203,10.0,14.0,94,0.00,,,0.00,weatherlink.com 1.10,2013-01-17 00:17:00,
2013-01-16 19:32:00,32.4,31.0,29.90,WSW,243,2.0,10.0,94,0.00,,,0.00,weatherlink.com 1.10,2013-01-17 00:32:00,
2013-01-16 19:47:00,32.3,31.0,29.89,East,85,2.0,5.0,94,0.00,,,0.00,weatherlink.com 1.10,2013-01-17 00:47:00,
2013-01-16 20:02:00,32.2,31.0,29.90,East,101,1.0,3.0,94,0.00,,,0.00,weatherlink.com 1.10,2013-01-17 01:02:00,
2013-01-16 20:17:00,32.3,31.0,29.90,ENE,77,2.0,2.0,94,0.00,,,0.00,weatherlink.com 1.10,2013-01-17 01:17:00,
2013-01-16 20:32:00,32.3,31.0,29.90,East,82,1.0,2.0,94,0.00,,,0.00,weatherlink.com 1.10,2013-01-17 01:32:00,
2013-01-16 20:47:00,32.4,31.0,29.91,SE,140,2.0,3.0,94,0.00,,,0.00,weatherlink.com 1.10,2013-01-17 01:47:00,
2013-01-16 21:02:00,32.4,31.0,29.90,SE,139,2.0,4.0,94,0.00,,,0.00,weatherlink.com 1.10,2013-01-17 02:02:00,
2013-01-16 21:17:00,32.5,31.0,29.91,SSE,162,6.0,8.0,94,0.00,,,0.00,weatherlink.com 1.10,2013-01-17 02:17:00,
2013-01-16 21:32:00,32.4,31.0,29.91,SSW,194,4.0,7.0,94,0.00,,,0.00,weatherlink.com 1.10,2013-01-17 02:32:00,
2013-01-16 21:47:00,32.1,31.0,29.91,East,97,0.0,3.0,94,0.00,,,0.00,weatherlink.com 1.10,2013-01-17 02:47:00,
2013-01-16 22:02:00,32.0,31.0,29.91,ENE,68,0.0,2.0,95,0.00,,,0.00,weatherlink.com 1.10,2013-01-17 03:02:00,
2013-01-16 22:17:00,31.8,31.0,29.90,SSE,166,2.0,3.0,95,0.00,,,0.00,weatherlink.com 1.10,2013-01-17 03:17:00,
2013-01-16 22:32:00,31.6,30.0,29.91,SW,223,0.0,3.0,95,0.00,,,0.00,weatherlink.com 1.10,2013-01-17 03:32:00,
2013-01-16 22:47:00,31.7,31.0,29.91,SSW,205,0.0,1.0,95,0.00,,,0.00,weatherlink.com 1.10,2013-01-17 03:47:00,
2013-01-16 23:02:00,31.7,31.0,29.91,South,187,0.0,2.0,95,0.00,,,0.00,weatherlink.com 1.10,2013-01-17 04:02:00,
2013-01-16 23:17:00,31.7,30.0,29.90,SE,131,0.0,3.0,94,0.00,,,0.00,weatherlink.com 1.10,2013-01-17 04:17:00,
2013-01-16 23:32:00,31.6,30.0,29.90,SSE,153,2.0,4.0,94,0.00,,,0.00,weatherlink.com 1.10,2013-01-17 04:32:00,
2013-01-16 23:47:00,31.5,30.0,29.91,NNE,30,0.0,6.0,94,0.00,,,0.00,weatherlink.com 1.10,2013-01-17 04:47:00,